Location: *
(44.9308°N, 123.0197°W)
Time: 04:00:49
(UTC+00:00)

ADEOS II - Pass Details

Date: 09 April 2020
Orbit: 799 x 802 km, 98.5° (Epoch: 25 May)

Event Time Altitude Azimuth Distance (km) Brightness Sun altitude
Rises 12:19:39 0° 359° (N) 3,321 5.6 -13.8°
Reaches altitude 10° 12:22:51 10° 338° (NNW) 2,385 4.6 -13.2°
Maximum altitude 12:25:56 16° 302° (WNW) 1,987 3.8 -12.7°
Enters shadow 12:28:05 13° 275° (W) 2,182 3.8 -12.4°
